Location: El Azufral
(10.3513°N, 67.1528°W)
Time: 19:36:36
(UTC+00:00)

Sylda 5 - Pass Details

Date: 13 June 2024
Orbit: 595 x 35452 km, 6.3° (Epoch: 24 July)

Event Time Altitude Azimuth Distance (km) Brightness Sun altitude
Rises 22:54:20 0° 254° (WSW) 8,227 8.7 -1.7°
Reaches altitude 10° 23:03:00 10° 244° (WSW) 4,534 7.1 -3.6°
Maximum altitude 23:10:17 26° 189° (S) 1,699 4.2 -5.2°
Drops below altitude 10° 23:13:28 11° 130° (SE) 1,964 4.0 -5.9°
Enters shadow 23:14:11 - 122° (ESE) 2,211 4.2 -6.1°
